Location: Banff
(51.1667°N, 115.5667°W)
Time: 09:52:12
(UTC+00:00)

Envisat - Pass Details

Date: 04 December 2022
Orbit: 763 x 765 km, 98.2° (Epoch: 28 January)

Event Time Altitude Azimuth Distance (km) Brightness Sun altitude
Rises 12:01:51 0° 15° (NNE) 3,247 6.5 -31.2°
Reaches altitude 10° 12:04:10 10° 17° (NNE) 2,316 5.7 -30.9°
Enters shadow 12:06:52 32° 22° (NNE) 1,298 4.3 -30.5°
